Flag for Russia Weather past 2 weeks in Novorossiysk, Russia

46 °F


Feels Like: 42 °F
Forecast: 45 / 64 °F
Wind: 8 mph from Northeast

Location: Anapa / Vitiazevo

Current Time: Nov 27, 2015 at 5:20:14 PM

Latest Report: Nov 27, 2015 at 5:00 PM

Visibility: 3 mi

Pressure: 29.98 "Hg

Humidity: 87%

Dew point: 43 °F

Location of NovorossiyskLocation

Historic Weather in Novorossiysk — Graph


Novorossiysk temperature yesterday

Maximum temperature yesterday: 54 °F (at 12:00 AM)
Minimum temperature yesterday: 45 °F (at 7:30 AM)
Average temperature yesterday: 50 °F

Past Weeks' High & Low Weather Summary

High72 °F (Nov 23, 12:00 PM)100% (Nov 12, 7:30 PM)30.33 "Hg (Nov 12, 7:30 PM)
Low27 °F (Nov 18, 5:00 AM)44% (Nov 23, 12:00 PM)29.53 "Hg (Nov 16, 7:30 PM)
Average51 °F78%30.00 "Hg
* Reported Nov 12 4:00 PM — Nov 27 4:00 PM, Novorossiysk, Weather by CustomWeather, © 2015

Note: Actual official high and low records may vary slightly from our data, if they occured in-between our weather recording intervals... More about our weather records


Novorossiysk weather history for previous 24 hours

Time TempWeatherWind HumidityBarometerVisibility
4:00 PM
Fri, Nov 27
46 °FClear.10 mph87%29.98 "Hg4 mi
3:30 PM46 °FSunny.13 mph93%29.98 "Hg10 mi
3:00 PM48 °FSunny.13 mph87%29.95 "Hg10 mi
2:30 PM48 °FSunny.13 mph87%29.95 "Hg10 mi
2:00 PM48 °FSunny.8 mph94%29.95 "Hg10 mi
1:30 PM50 °FSunny.8 mph88%29.95 "Hg10 mi
1:00 PM50 °FSunny.8 mph88%29.95 "Hg10 mi
12:30 PM50 °FClear.8 mph88%29.95 "Hg4 mi
12:00 PM48 °FScattered clouds.10 mph94%29.95 "Hg4 mi
11:30 AM48 °FSprinkles. More clouds than sun.8 mph94%29.98 "Hg4 mi
11:00 AM46 °FPartly sunny.13 mph93%29.95 "Hg4 mi
9:30 AM45 °FClear.13 mph93%29.95 "Hg4 mi
9:00 AM45 °FFog.15 mph93%29.95 "Hg3 mi
8:30 AM45 °FPassing clouds.17 mph93%29.92 "Hg4 mi
8:00 AM45 °FClear.17 mph87%29.92 "Hg4 mi
7:00 AM43 °FQuite cool.17 mph93%29.89 "Hg4 mi
6:30 AM45 °FQuite cool.17 mph87%29.89 "Hg4 mi
6:00 AM45 °FQuite cool.17 mph87%29.89 "Hg4 mi
5:30 AM45 °FQuite cool.17 mph93%29.89 "Hg4 mi
5:00 AM45 °FQuite cool.17 mph87%29.89 "Hg4 mi
4:30 AM46 °FCool.17 mph87%29.89 "Hg4 mi
4:00 AM46 °FCool.17 mph87%29.89 "Hg5 mi
3:30 AM46 °FCool.15 mph87%29.89 "Hg6 mi
3:00 AM46 °FCool.17 mph93%29.89 "Hg6 mi
2:30 AM48 °FCool.15 mph87%29.89 "Hg5 mi
2:00 AM50 °FCool.15 mph82%29.86 "Hg5 mi
1:00 AM48 °FCool.10 mph87%29.86 "Hg5 mi
12:30 AM48 °FCool.17 mph87%29.86 "Hg4 mi
12:00 AM48 °FCool.17 mph87%29.86 "Hg5 mi
11:30 PM
Thu, Nov 26
48 °FCool.20 mph87%29.83 "Hg5 mi
11:00 PM48 °FCool.15 mph87%29.86 "Hg6 mi
10:30 PM48 °FCool.20 mph87%29.86 "Hg5 mi
10:00 PM48 °FSprinkles. Overcast.13 mph87%29.86 "Hg5 mi
9:30 PM48 °FCool.20 mph87%29.86 "Hg5 mi
9:00 PM50 °FCool.15 mph82%29.86 "Hg5 mi
8:30 PM50 °FCool.20 mph88%29.83 "Hg5 mi
8:00 PM50 °FDrizzle. Overcast.17 mph88%29.83 "Hg4 mi
7:30 PM50 °FCool.15 mph88%29.83 "Hg5 mi
7:00 PM50 °FClear.15 mph88%29.80 "Hg10 mi
6:30 PM50 °FClear.17 mph88%29.80 "Hg10 mi
6:00 PM50 °FCool.17 mph88%29.80 "HgN/A
5:30 PM50 °FSunny.15 mph88%29.80 "Hg10 mi
5:00 PM52 °FSunny.13 mph88%29.80 "Hg10 mi
Weather by CustomWeather, © 2015

See weather overviewHow to use our weather pages